sat.trackr.live / text

‹ back to catalog

KUIPER-00304

NORAD 68599 · 2026-072AC

PAYLOAD ACTIVE UNKNOWN

§ Identity

Operator
Country
US
Launch date
2026-04-04
Launch site
AFETR
Launch vehicle
Mass (kg)
RCS (m²)

External: N2YO · Heavens-Above · Gunter

§ Orbital elements

Epoch: 2026-05-24T19:57:02.115072Z

Period
93.67 min
Inclination
51.8672°
Eccentricity
0.0010169
Mean motion
15.37322622 rev/d
Perigee alt
447.1 km
Apogee alt
461.0 km
Semi-major
6,832.2 km
B*
6.6908e-4
RAAN
290.1063°
Arg perigee
300.6350°
Mean anomaly
59.3633°
Rev number
778

§ Raw data

KUIPER-003041 68599U 26072AC  26144.83127448  .00024579  00000+0  66908-3 0  99962 68599  51.8672 290.1063 0010169 300.6350  59.3633 15.37322622  7787

JSON: /api/v1/satellites/68599 · /tle

For live sub-satellite position, see the globe view (requires WebGL).

§ Visibility from observer

Set your observer location to see the next 7 days of passes ≥ 10°. The values pass through the URL so the page stays shareable.

No JS? Fill the form by hand. The geolocation button needs JavaScript.